This demonstration page uses our WeatherBlox Daily Observations layout. Learn more.

Left ArrowRight Arrow

Hourly Observations for May 15, 2021

Temp ( °F °C ) Dew Point ( °F °C ) Humidity (%) Winds ( mph kmh ) Pressure ( in mb ) Visibility ( mi km ) Precip ( " mm )
12:53 am 00:53 Clear 74 23.3 45 7.2 36 36 N 10 17 29.75 1008 10 16 0.00 0.00
1:53 am 01:53 Clear 74 23.3 44 6.7 34 34 N 5 7 29.73 1007 10 16 0.00 0.00
2:53 am 02:53 Clear 71 21.7 45 7.2 39 39 NW 5 7 29.73 1007 10 16 0.00 0.00
3:53 am 03:53 Clear 64 17.8 49 9.4 58 58 S 12 19 29.75 1008 10 16 0.00 0.00
4:32 am 04:32 Mostly Cloudy with Nearby Thunderstorms 62 16.7 50 10 65 65 SSE 7 11 29.78 1009 10 16 0.00 0.00
4:39 am 04:39 Mostly Cloudy with Thunderstorms 61 16.1 51 10.6 70 70 SE 7 11 29.80 1009 10 16 0.00 0.00
4:53 am 04:53 Cloudy with Thunderstorms 60 15.6 52 11.1 75 75 SSW 9 15 29.78 1008 8 13 0.07 1.78
5:13 am 05:13 Mostly Cloudy with Nearby Thunderstorms 60 15.6 51 10.6 72 72 SSW 6 9 29.81 1009 9 14 0.01 0.25
5:23 am 05:23 Mostly Cloudy 59 15 50 10 72 72 SSW 8 13 29.81 1009 10 16 0.01 0.25
5:53 am 05:53 Partly Cloudy 59 15 50 10 72 72 Calm 29.81 1009 10 16 0.02 0.51
6:53 am 06:53 Cloudy 59 15 49 9.4 69 69 Calm 29.84 1010 10 16 0.00 0.00
7:53 am 07:53 Mostly Cloudy 58 14.4 49 9.4 72 72 SSW 6 9 29.85 1011 10 16 0.00 0.00
8:53 am 08:53 Mostly Sunny 59 15 49 9.4 69 69 SE 7 11 29.86 1011 10 16 0.00 0.00
9:53 am 09:53 Sunny 59 15 49 9.4 69 69 SSE 3 6 29.85 1011 10 16 0.00 0.00
10:53 am 10:53 Sunny 61 16.1 50 10 67 67 SSW 7 11 29.84 1011 10 16 0.00 0.00
11:53 am 11:53 Sunny 65 18.3 51 10.6 61 61 Calm 29.82 1010 10 16 0.00 0.00
12:53 pm 12:53 Sunny 70 21.1 52 11.1 53 53 Calm 29.80 1009 10 16 0.00 0.00
1:53 pm 13:53 Sunny 78 25.6 53 11.7 42 42 E 5 7 29.78 1008 10 16 0.00 0.00
2:53 pm 14:53 Sunny 80 26.7 51 10.6 37 37 E 3 6 29.77 1008 10 16 0.00 0.00
3:53 pm 15:53 Sunny 83 28.3 49 9.4 31 31 S 7 11 29.75 1007 10 16 0.00 0.00
4:53 pm 16:53 Sunny 85 29.4 45 7.2 25 25 Calm 29.72 1006 10 16 0.00 0.00
5:53 pm 17:53 Sunny 84 28.9 45 7.2 25 25 W 5 7 29.70 1006 10 16 0.00 0.00
6:53 pm 18:53 Sunny 84 28.9 45 7.2 25 25 SW 5 7 29.70 1006 10 16 0.00 0.00
7:44 pm 19:44 Mostly Cloudy with Nearby Thunderstorms 82 27.8 45 7.2 27 27 E 9 15 29.72 1007 10 16 0.00 0.00
7:53 pm 19:53 Partly Cloudy 81 27.2 43 6.1 26 26 undefined N/A 29.71 1006 10 16 0.00 0.00
8:01 pm 20:01 Partly Cloudy with Nearby Thunderstorms 79 26.1 52 11.1 39 39 SSW 12 19 29.71 1006 10 16 0.00 0.00
8:22 pm 20:22 Clear 77 25 52 11.1 42 42 SSE 7 11 29.73 1007 10 16 0.00 0.00
8:53 pm 20:53 Clear 75 23.9 53 11.7 46 46 S 9 15 29.75 1008 10 16 0.00 0.00
9:53 pm 21:53 Clear 73 22.8 51 10.6 46 46 S 5 7 29.77 1008 10 16 0.00 0.00
10:53 pm 22:53 Clear 68 20 53 11.7 59 59 ESE 5 7 29.78 1009 10 16 0.00 0.00
11:53 pm 23:53 Clear 66 18.9 52 11.1 61 61 N 3 6 29.79 1009 10 16 0.00 0.00

Powered by AerisWeather